[[{"header":{"parameterUnit":"m.s-1","parameterCategory":1,"la1":30.2991,"la2":30.254,"lo1":-89.0895,"lo2":-89.0444,"dy":0.0017,"dx":0.0017,"nx":28,"ny":28,"refTime":"2025-03-17T03:00:00:Z","depth":0,"parameterNumber":2,"parameterNumberName":"U-component_of_WINDS"},"data":[0,0,0,0,0,0,0,0,0,0,0,0,0,0,0,0,0,0,0,0,0,0,0,0,0,0,0,0,0,0,0,0,0,0,0,0,0,0,0,0,0,0,0,0,0,0,0,0,0,0,0,0,0,0,0,0,0,0,2.7347,2.7348,0,2.7432,2.7433,2.7434,2.7393,2.7391,2.7389,2.7387,2.7474,2.7478,2.7482,0,0,0,0,0,0,0,0,0,0,0,0,0,2.7151,2.7155,2.7347,2.7348,2.7349,2.7431,2.7433,2.7434,2.7393,2.7391,2.7388,2.7386,2.7472,2.7477,2.7482,0,0,0,0,0,0,0,0,0,0,0,0,0,2.7236,2.7156,2.7347,2.7339,2.7339,2.7431,2.7433,2.7434,2.7394,2.7391,2.7387,2.7384,2.747,2.7477,2.7483,2.7588,0,0,2.7503,2.7506,0,0,0,0,0,0,0,0,2.7231,2.7243,2.7339,2.734,2.734,2.7398,2.7395,2.7486,2.7395,2.7373,2.7387,2.7383,2.7451,2.7459,2.7482,2.7592,2.7596,2.7504,2.7508,2.751,2.7512,0,0,0,0,0,0,0,2.7226,2.724,2.738,2.734,2.7341,2.7331,2.734,2.7412,2.7429,2.7375,2.7372,2.7383,2.7451,2.7476,2.7484,2.7597,2.7503,2.7509,2.7513,2.7516,2.7799,2.7803,0,0,0,0,0,0,2.722,2.7235,2.7378,2.7383,2.7277,2.7338,2.7347,2.7383,2.7428,2.7432,2.7385,2.738,2.7466,2.7476,2.7487,2.7613,2.751,2.7516,2.752,2.7796,2.78,2.7804,0,0,0,0,0,0,2.7216,2.7233,2.7374,2.7308,2.7326,2.7344,2.7385,2.7386,2.7411,2.7436,2.7439,2.7408,2.7464,2.7478,2.7564,2.7616,2.7519,2.7525,2.7791,2.7797,2.7802,2.7867,0,0,0,0,0,0,2.721,2.7232,2.7271,2.7309,2.7329,2.7449,2.7388,2.739,2.7423,2.7417,2.7458,2.7462,2.7463,2.7554,2.757,2.7623,2.753,2.7787,2.7794,2.78,2.786,2.7874,2.7886,0,0,0,0,0,2.7204,2.7286,2.7274,2.7291,2.7379,2.7453,2.7464,2.7463,2.7427,2.7467,2.7484,2.7461,2.7608,2.7563,2.7581,2.7636,2.7783,2.7792,2.78,2.7854,2.7871,2.7885,0,0,0,0,0,0,2.7253,2.7291,2.7277,2.7375,2.7411,2.7446,2.7496,2.7481,2.7528,2.752,2.7518,2.7527,2.7617,2.7635,2.7585,2.7741,2.769,2.7702,2.7726,2.7742,2.7754,2.7748,2.7536,0,0,0,0,0,2.7276,2.7332,2.7362,2.7445,2.7464,2.7477,2.7509,2.7505,2.7543,2.7558,2.758,2.7617,2.7672,2.7708,2.7759,2.7863,2.7872,2.791,2.7923,2.7933,2.7943,2.8,2.8018,2.7831,2.7831,2.7831,0,0,2.7322,2.735,2.7385,2.7456,2.7483,2.7542,2.749,2.7554,2.7598,2.7567,2.765,2.7668,2.7709,2.7805,2.7848,2.7823,2.7997,2.7944,2.7952,2.7956,2.8011,2.8028,2.8044,2.7836,2.7835,2.7834,0,0,2.7437,2.7464,2.7536,2.7565,2.7608,2.7616,2.7634,2.7671,2.7682,2.7765,2.7744,2.7796,2.789,2.7921,2.7949,2.8078,2.8058,2.8095,2.8161,2.8216,2.8231,2.8244,2.829,2.8307,2.8105,2.8105,2.8105,0,2.749,2.7577,2.7575,2.7641,2.7673,2.7649,2.7723,2.7751,2.7808,2.7831,2.7802,2.7921,2.7947,2.805,2.8081,2.8105,2.8125,2.8089,2.8229,2.8242,2.8254,2.8298,2.8316,2.8109,2.8109,2.8108,2.8108,0,2.764,2.7701,2.7754,2.7811,2.7849,2.7918,2.7927,2.7966,2.796,2.7972,2.8058,2.8088,2.8146,2.8171,2.8165,2.8273,2.8256,2.8229,2.8177,2.8276,2.8318,2.8335,2.8115,2.8114,2.8112,2.8111,0,0,2.7787,2.7842,2.7862,2.7888,2.7934,2.7981,2.805,2.8107,2.8141,2.8182,2.824,2.8321,2.8296,2.8328,2.8326,2.8375,2.8475,2.8341,2.8342,2.8365,2.8597,2.8617,2.8637,2.8463,2.8467,2.8469,2.8594,0,2.7905,2.8025,2.8027,2.8138,2.8195,2.8174,2.8234,2.8269,2.8283,2.8333,2.8348,2.8406,2.8369,2.8388,2.8435,2.8453,2.8522,2.8444,2.8518,2.852,2.8507,2.8658,2.868,2.8796,2.861,2.8613,2.8615,0,2.8058,2.8105,2.8222,2.8261,2.8285,2.8339,2.8392,2.844,2.848,2.8487,2.8523,2.8514,2.8585,2.8532,2.8631,2.8578,2.8608,2.8622,2.8626,2.8633,2.8573,2.8669,2.8833,2.885,2.864,2.8638,2.8636,0,2.8154,2.8246,2.8328,2.835,2.8398,2.8437,2.8458,2.8495,2.853,2.8576,2.8599,2.8653,2.8683,2.8725,2.8732,2.8692,2.8831,2.8778,2.8838,2.8838,2.8868,2.8866,2.9039,2.8888,2.8888,2.8888,2.8887,0,2.8285,2.8358,2.8371,2.8422,2.8503,2.8504,2.8584,2.8603,2.8636,2.869,2.8676,2.8727,2.8732,2.8785,2.8791,2.8872,2.8885,2.8893,2.8893,2.8894,2.8893,2.8913,2.8905,2.8892,2.8891,2.889,2.889,0,2.8405,2.8417,2.8505,2.8544,2.8555,2.8613,2.8646,2.8695,2.8707,2.8776,2.8793,2.8813,2.8875,2.8885,2.8958,2.8962,2.9059,2.9051,2.9045,2.9044,2.9104,2.9098,2.9295,2.9321,2.9154,2.9156,2.9157,0,2.8488,2.8543,2.8588,2.8623,2.8647,2.8704,2.8739,2.8743,2.8781,2.8832,2.8875,2.8935,2.8983,2.9084,2.9105,2.9161,2.9154,2.922,2.9162,2.9162,2.9155,2.9152,2.9157,2.923,2.9232,2.9234,2.9235,0,2.8633,2.8637,2.8688,2.8743,2.8786,2.8829,2.887,2.8899,2.8909,2.8952,2.9016,2.9053,2.9128,2.9189,2.9245,2.9267,2.9253,2.9253,2.927,2.9271,2.9265,2.9269,2.9075,2.9248,2.9247,2.9246,2.9245,2.9245,2.8737,2.8785,2.8825,2.8883,2.8914,2.8953,2.9001,2.902,2.9073,2.9134,2.9134,2.9204,2.9244,2.9317,2.9344,2.9399,2.9378,2.9402,2.9408,2.9414,2.942,2.9257,2.9409,2.9409,2.9409,2.9408,2.9408,0,2.8881,2.8906,2.896,2.9018,2.9064,2.9047,2.9092,2.9132,2.9193,2.9232,2.928,2.9354,2.9413,2.9439,2.9498,2.9536,2.9532,2.9552,2.9548,2.9554,2.9435,2.9415,2.9555,2.9555,2.9555,2.9555,2.9555,2.9555,2.8962,2.9043,2.9052,2.915,2.9174,2.9242,2.9269,2.9305,2.9336,2.9418,2.9467,2.9485,2.9519,2.958,2.9634,2.964,2.9662,2.9685,2.9689,2.9577,2.9562,2.9548,2.9529,2.969,2.969,2.9803,2.9804,2.9805]},{"header":{"parameterUnit":"m.s-1","parameterCategory":1,"la1":30.2991,"la2":30.254,"lo1":-89.0895,"lo2":-89.0444,"dy":0.0017,"dx":0.0017,"nx":28,"ny":28,"refTime":"2025-03-17T03:00:00:Z","depth":0,"parameterNumber":3,"parameterNumberName":"V-component_of_WINDS"},"data":[0,0,0,0,0,0,0,0,0,0,0,0,0,0,0,0,0,0,0,0,0,0,0,0,0,0,0,0,0,0,0,0,0,0,0,0,0,0,0,0,0,0,0,0,0,0,0,0,0,0,0,0,0,0,0,0,0,0,-4.0601,-4.0603,0,-4.0818,-4.082,-4.0823,-4.0816,-4.0813,-4.081,-4.0807,-4.1032,-4.1041,-4.1049,0,0,0,0,0,0,0,0,0,0,0,0,0,-4.0185,-4.0192,-4.0601,-4.0604,-4.0606,-4.0817,-4.082,-4.0823,-4.0817,-4.0813,-4.081,-4.0806,-4.1029,-4.104,-4.105,0,0,0,0,0,0,0,0,0,0,0,0,0,-4.038,-4.0195,-4.06,-4.0628,-4.0633,-4.0817,-4.082,-4.0824,-4.0818,-4.0813,-4.0809,-4.0804,-4.1026,-4.1039,-4.1051,-4.1222,0,0,-4.1092,-4.1097,0,0,0,0,0,0,0,0,-4.0369,-4.0395,-4.0622,-4.0627,-4.0632,-4.0785,-4.0756,-4.0958,-4.0819,-4.0748,-4.0807,-4.0802,-4.0954,-4.0973,-4.1023,-4.1233,-4.1242,-4.1093,-4.1101,-4.1106,-4.111,0,0,0,0,0,0,0,-4.0355,-4.0386,-4.0687,-4.0625,-4.0632,-4.0631,-4.0654,-4.0794,-4.0873,-4.0753,-4.0753,-4.0779,-4.0956,-4.101,-4.1028,-4.1246,-4.1092,-4.1104,-4.1112,-4.1117,-4.1608,-4.1613,0,0,0,0,0,0,-4.0335,-4.0375,-4.068,-4.0693,-4.0487,-4.0642,-4.0668,-4.0741,-4.0872,-4.0887,-4.0783,-4.0778,-4.099,-4.1013,-4.1036,-4.1246,-4.1106,-4.1119,-4.1126,-4.1603,-4.161,-4.1615,0,0,0,0,0,0,-4.0327,-4.0363,-4.0671,-4.0534,-4.0573,-4.0654,-4.0736,-4.0747,-4.0802,-4.0894,-4.0908,-4.0824,-4.0988,-4.1018,-4.1176,-4.1254,-4.1125,-4.1137,-4.1597,-4.1605,-4.1612,-4.1666,0,0,0,0,0,0,-4.0315,-4.036,-4.0424,-4.0536,-4.0581,-4.0807,-4.0741,-4.0755,-4.0824,-4.082,-4.0936,-4.0951,-4.0986,-4.1157,-4.1189,-4.127,-4.1147,-4.1591,-4.1601,-4.161,-4.1658,-4.1675,-4.169,0,0,0,0,0,-4.03,-4.0431,-4.0428,-4.0465,-4.0663,-4.0811,-4.0837,-4.0874,-4.083,-4.0897,-4.0956,-4.0947,-4.124,-4.1173,-4.121,-4.1295,-4.1586,-4.1598,-4.1609,-4.1651,-4.1672,-4.1689,0,0,0,0,0,0,-4.0328,-4.0446,-4.0444,-4.0615,-4.0703,-4.081,-4.0895,-4.0895,-4.0998,-4.099,-4.1032,-4.1059,-4.1218,-4.1272,-4.1196,-4.1468,-4.1408,-4.1427,-4.1427,-4.1447,-4.1463,-4.1447,-4.1158,0,0,0,0,0,-4.0354,-4.0463,-4.0561,-4.0702,-4.0747,-4.0813,-4.0879,-4.09,-4.0993,-4.1031,-4.1102,-4.1193,-4.1306,-4.1379,-4.1488,-4.1666,-4.1692,-4.1743,-4.1758,-4.1771,-4.1787,-4.1887,-4.1911,-4.1653,-4.1653,-4.1653,0,0,-4.0409,-4.0487,-4.0553,-4.071,-4.0781,-4.0894,-4.0845,-4.0966,-4.1051,-4.105,-4.1204,-4.1259,-4.1364,-4.1534,-4.1612,-4.1584,-4.1864,-4.1785,-4.1795,-4.1805,-4.1902,-4.1926,-4.1948,-4.1661,-4.166,-4.1658,0,0,-4.0567,-4.0637,-4.0763,-4.0835,-4.0942,-4.0986,-4.1016,-4.1124,-4.116,-4.1315,-4.1317,-4.1419,-4.1612,-4.1687,-4.1751,-4.1939,-4.1935,-4.1973,-4.2056,-4.2153,-4.2173,-4.2191,-4.226,-4.2284,-4.1989,-4.199,-4.199,0,-4.0622,-4.0792,-4.0828,-4.0951,-4.102,-4.1023,-4.1153,-4.1221,-4.1359,-4.1407,-4.1374,-4.1617,-4.1688,-4.1876,-4.1922,-4.1973,-4.201,-4.1961,-4.2167,-4.2186,-4.2203,-4.2269,-4.2295,-4.1994,-4.1993,-4.1993,-4.1992,0,-4.0855,-4.0973,-4.1062,-4.1195,-4.1275,-4.14,-4.1456,-4.1533,-4.1547,-4.1594,-4.1754,-4.1839,-4.1966,-4.2012,-4.2027,-4.2202,-4.2182,-4.2157,-4.2098,-4.2231,-4.2294,-4.232,-4.1999,-4.1998,-4.1997,-4.1996,0,0,-4.1038,-4.1189,-4.1221,-4.1282,-4.1401,-4.1494,-4.162,-4.1743,-4.1809,-4.1904,-4.2012,-4.2175,-4.2154,-4.2226,-4.225,-4.2335,-4.248,-4.23,-4.2303,-4.2332,-4.2681,-4.27,-4.2728,-4.2478,-4.2483,-4.2487,-4.2673,0,-4.121,-4.1432,-4.1469,-4.1665,-4.1775,-4.178,-4.189,-4.1976,-4.2024,-4.2126,-4.2179,-4.2295,-4.2257,-4.2301,-4.2384,-4.2445,-4.2551,-4.2432,-4.2581,-4.2586,-4.2555,-4.2761,-4.2781,-4.2952,-4.2697,-4.2701,-4.2704,0,-4.144,-4.1541,-4.1748,-4.1853,-4.1901,-4.1999,-4.2116,-4.2212,-4.231,-4.2339,-4.2421,-4.2435,-4.2568,-4.2501,-4.2685,-4.2603,-4.2667,-4.2706,-4.2713,-4.273,-4.2654,-4.2784,-4.3007,-4.3033,-4.2743,-4.274,-4.2737,0,-4.1554,-4.1741,-4.189,-4.1941,-4.2068,-4.2137,-4.2193,-4.2287,-4.2359,-4.2461,-4.2509,-4.2626,-4.269,-4.2781,-4.2827,-4.2774,-4.3009,-4.2946,-4.3038,-4.3037,-4.3088,-4.3085,-4.3326,-4.3127,-4.3126,-4.3126,-4.3125,0,-4.1742,-4.1869,-4.1943,-4.2034,-4.2177,-4.2218,-4.2359,-4.2413,-4.2497,-4.26,-4.2612,-4.2709,-4.2763,-4.2868,-4.2905,-4.3053,-4.3082,-4.3111,-4.3119,-4.3111,-4.3107,-4.3153,-4.3143,-4.3133,-4.3131,-4.313,-4.3129,0,-4.1894,-4.1948,-4.2111,-4.2217,-4.2247,-4.2347,-4.2439,-4.2529,-4.2576,-4.2707,-4.274,-4.2816,-4.2941,-4.2995,-4.3149,-4.3174,-4.3344,-4.3343,-4.3311,-4.3314,-4.3404,-4.3395,-4.3685,-4.3725,-4.3498,-4.35,-4.3501,0,-4.2012,-4.2109,-4.2226,-4.2296,-4.2354,-4.2466,-4.2539,-4.2584,-4.2661,-4.2781,-4.2857,-4.2981,-4.3084,-4.3283,-4.3353,-4.3471,-4.3474,-4.3567,-4.3492,-4.3481,-4.3478,-4.3472,-4.3483,-4.3581,-4.3584,-4.3585,-4.3587,0,-4.2215,-4.2237,-4.2342,-4.2458,-4.2545,-4.2639,-4.273,-4.2787,-4.2846,-4.2932,-4.3059,-4.3139,-4.3296,-4.3421,-4.3543,-4.3603,-4.3606,-4.361,-4.3638,-4.3631,-4.3609,-4.3624,-4.335,-4.3603,-4.3602,-4.3601,-4.36,-4.3599,-4.2355,-4.2442,-4.2538,-4.2656,-4.2729,-4.2814,-4.2904,-4.2963,-4.307,-4.3201,-4.3221,-4.3358,-4.3455,-4.362,-4.3684,-4.3793,-4.377,-4.381,-4.382,-4.383,-4.3836,-4.359,-4.3815,-4.3814,-4.3814,-4.3814,-4.3814,0,-4.256,-4.2622,-4.2729,-4.2857,-4.295,-4.2943,-4.3044,-4.3123,-4.3242,-4.3332,-4.3433,-4.3581,-4.3702,-4.3781,-4.3904,-4.3975,-4.398,-4.4006,-4.4002,-4.4016,-4.3849,-4.3813,-4.4001,-4.4001,-4.4001,-4.4001,-4.4,-4.4,-4.2678,-4.2826,-4.286,-4.3045,-4.3107,-4.324,-4.3298,-4.3378,-4.345,-4.3614,-4.3714,-4.3765,-4.3851,-4.3981,-4.4092,-4.4112,-4.4158,-4.4186,-4.4205,-4.4047,-4.4028,-4.4009,-4.3976,-4.4195,-4.4195,-4.4364,-4.4366,-4.4367]}]]